Voltar ao catálogo

SL-16 DEB

AtivoLEO
NORAD 39864·DEBRIS·🇷🇺 Russia

Lançado Dec 25, 1992 de Baikonur Cosmodrome

Loading…

Próximas Passagens (próximas 24 horas)

TLE

ObsoletoSource: Space-Track

Época: Aug 28, 2026, 22:28 UTC

1 39864U 92093LS  26240.93649818  .00000492  00000-0  24997-3 0  9994
2 39864  71.1528 345.8890 0108337 116.8384 244.3867 14.17596751629430

Acompanhe SL-16 DEB em tempo real com AllMySat

Download on the App Store